Flag for Hungary Weather past 2 weeks in Debrecen, Hungary

Now
61 °F

Clear.


Feels Like: 61 °F
Forecast: 53 / 73 °F
Wind: 2 mph from South

Location: Debrecen Airport

Current Time: Sep 17, 2014 at 12:35:09 AM

Latest Report: Sep 16, 2014 at 8:45 PM


Visibility: 10 mi

Pressure: 30.09 "Hg

Humidity: 83%

Dew point: 55 °F

Location of DebrecenLocation

Historic Weather in Debrecen — Graph

°F

Debrecen temperature yesterday

Maximum temperature yesterday: 72 °F (at 3:45 PM)
Minimum temperature yesterday: 57 °F (at 4:45 AM)
Average temperature yesterday: 65 °F

Past Weeks' High & Low Weather Summary

 TemperatureHumidityPressure
High84 °F (Sep 2, 2:15 PM)100% (Sep 8, 5:15 AM)30.12 "Hg (Sep 8, 5:15 AM)
Low55 °F (Sep 8, 5:15 AM)29% (Sep 2, 2:15 PM)29.80 "Hg (Sep 1, 8:15 PM)
Average69 °F70%29.97 "Hg
* Reported Sep 1 8:15 PM — Sep 16 8:45 PM, Debrecen, Weather by CustomWeather, © 2014

Note: Actual official high and low records may vary slightly from our data, if they occured in-between our weather recording intervals... More about our weather records

Advertising

Debrecen weather history for previous 24 hours

 ConditionsComfort  
Time TempWeatherWind HumidityBarometerVisibility
8:45 PM
Sep 16
61 °FClear.2 mph83%30.09 "Hg10 mi
8:15 PM63 °FClear.No wind83%30.07 "Hg10 mi
7:15 PM66 °FSunny.3 mph73%30.07 "Hg10 mi
6:45 PM68 °FSunny.No wind69%30.07 "Hg10 mi
6:15 PM70 °FSunny.No wind69%30.07 "Hg10 mi
5:45 PM72 °FMore clouds than sun.No wind57%30.07 "HgN/A
5:15 PM72 °FSunny.2 mph61%30.07 "Hg10 mi
4:45 PM72 °FSunny.No wind57%30.07 "Hg10 mi
4:15 PM72 °FSunny.No wind57%30.07 "Hg10 mi
3:45 PM72 °FSunny.No wind57%30.07 "Hg10 mi
3:15 PM70 °FSunny.No wind60%30.07 "Hg10 mi
2:45 PM70 °FSunny.No wind64%30.07 "Hg10 mi
2:15 PM70 °FSunny.No wind64%30.09 "Hg10 mi
1:45 PM68 °FPartly sunny.No wind69%30.09 "HgN/A
1:15 PM68 °FPartly sunny.1 mph64%30.09 "HgN/A
12:45 PM66 °FPartly sunny.No wind78%30.09 "HgN/A
12:15 PM64 °FPartly sunny.No wind78%30.09 "HgN/A
11:45 AM64 °FBroken clouds.3 mph78%30.12 "HgN/A
11:15 AM64 °FLight rain. Broken clouds.3 mph78%30.09 "HgN/A
10:55 AM64 °FMild.7 mph78%30.09 "HgN/A
10:15 AM64 °FSunny.6 mph78%30.09 "Hg10 mi
9:45 AM64 °FSunny.3 mph78%30.09 "Hg10 mi
9:15 AM64 °FSunny.6 mph83%30.09 "Hg10 mi
8:45 AM64 °FPartly sunny.5 mph83%30.09 "Hg5 mi
8:15 AM63 °FPartly sunny.No wind94%30.09 "Hg5 mi
7:45 AM61 °FPartly sunny.1 mph100%30.09 "Hg4 mi
7:15 AM59 °FPartly sunny.No wind94%30.09 "Hg4 mi
6:45 AM59 °FPassing clouds.3 mph94%30.07 "Hg4 mi
6:15 AM59 °FPassing clouds.2 mph94%30.07 "Hg5 mi
5:45 AM59 °FClear.2 mph94%30.07 "Hg10 mi
5:15 AM59 °FClear.2 mph94%30.07 "Hg10 mi
4:45 AM57 °FClear.No wind100%30.07 "Hg10 mi
Weather by CustomWeather, © 2014

See weather overviewHow to use our weather pages